Weather Roundup
Issued by NWS Chicago, IL

Home | Current Version | Previous Version | Text Only | Print | Product List | Glossary Off
Versions: 1 2 3 4 5 6 7 8 9 10 11 12 13 14 15 16 17 18 19 20 21 22 23 24 25 26 27 28 29 30 31 32 33 34 35 36 37 38 39 40 41 42 43 44 45 46 47 48 49 50

000
NZUS59 KLOT 300413
HRRLOT

CHICAGO AREA WEATHER ROUNDUP
NATIONAL WEATHER SERVICE CHICAGO/ROMEOVILLE IL
1100 PM CDT FRI MAY 29 2015

NOTE: "FAIR" INDICATES FEW OR NO CLOUDS BELOW 12,000 FEET WITH NO
SIGNIFICANT WEATHER AND/OR OBSTRUCTIONS TO VISIBILITY.

* THESE STATIONS ARE NOT UNDER NWS QUALITY CONTROL. THEY ALSO MAY NOT
  REPORT WEATHER SUCH AS PRECIPITATION OR FOG.

ILZ005-006-012>014-019>023-300500-
NORTHEAST ILLINOIS

CITY           SKY/WX    TMP DP  RH WIND       PRES   REMARKS
OHARE          MOCLDY    74  66  76 SW8       29.93R
MIDWAY         MOCLDY    75  66  73 SW14G21   29.94R
AURORA         MOCLDY    73  63  70 S10       29.95R
LANSING*       MOCLDY    70  63  79 SW8       29.96S
JOLIET*        MOCLDY    72  67  83 SW5       29.96S
WAUKEGAN       MOCLDY    70  63  78 SW5       29.91S
DUPAGE AIRPORT MOCLDY    73  63  70 SW7       29.94R
WHEELING       PTCLDY    70  67  90 CALM      29.94R
KANKAKEE*      CLOUDY    69  66  90 S8        29.97F
MORRIS*        MOCLDY    70  65  84 SW8       29.94S
LEWIS AIRPORT* MOCLDY    71  64  79 SW14      29.96S
NORTHERLY IS     N/A     74  64  71 S9          N/A
$$

WIZ051-052-058>065-066-070>072-300500-
SOUTHEAST WISCONSIN

CITY           SKY/WX    TMP DP  RH WIND       PRES   REMARKS
MILWAUKEE      MOCLDY    71  65  81 SW9       29.90S
KENOSHA*       CLOUDY    70  65  84 SW6       29.92R
RACINE*        CLOUDY    70  65  84 SW6       29.92S
BURLINGTON     CLOUDY    67  64  90 SW5       29.92S
WAUKESHA       CLOUDY    68  64  88 SW6       29.92S
WEST BEND      CLOUDY    68  64  88 SW3       29.89F
$$

INZ001>003-010>013-019-020-300500-
NORTHWEST INDIANA

CITY           SKY/WX    TMP DP  RH WIND       PRES   REMARKS
GARY*          MOCLDY    73  67  80 SW5       29.95S
MICHIGAN CITY* NOT AVBL
RENSSELAER*    NOT AVBL
VALPARAISO     CLOUDY    70  66  87 SW7       29.98S
$$

LMZ740>746-300500-
SOUTHERN LAKE MICHIGAN

STATION/POSITION TIME  SKY/WX   TEMP WIND        PRES    VSBY
                                AIR  DIR/SP/G
                 (UTC)          (F)  (DEG/KT/KT) (MB)    (MI)
HARRISON CRIB    0300            74  200/ 17/ 18   N/A
BURNHAM HARBOR   0400            74  210/  8/ 12   N/A
CALUMET HARBOR   0300            73  180/  6/  9   N/A
BURNS HARBOR     0300            72  190/ 11/ 14 1014.9R
MICHIGAN CITY    0300            73  170/ 13/ 16   N/A
$$

ABBREVIATIONS USED IN REMARKS
   TC - TEMPERATURE IN CELSIUS
  WCI - WIND CHILL INDEX
   HX - HEAT INDEX
  VSB - VISIBILITY
$$


USA.gov is the U.S. government's official web portal to all federal, state and local government web resources and services.